Regional Weather Roundup
Issued by NWS Goodland, KS

Home | Current Version | Previous Version | Graphics & Text | Print | Product List | Glossary On
Versions: 1 2 3 4 5 6 7 8 9 10 11 12 13 14 15 16 17 18 19 20 21 22 23 24 25 26 27 28 29 30 31 32 33 34 35 36 37 38 39 40 41 42 43 44 45 46 47 48 49 50
429
ASUS43 KGLD 270508
RWRGLD

GOODLAND FORECAST AREA HOURLY WEATHER ROUNDUP
NATIONAL WEATHER SERVICE GOODLAND KS
1100 PM MDT THU MAY 26 2016

...OFFICIAL OBSERVATIONS...

CITY           SKY/WX    TMP DP  RH WIND       PRES   REMARKS
GOODLAND KS    NOT AVBL
HILL CITY KS   CLOUDY    57  53  86 NE16G24   29.72R
IMPERIAL NEB   CLOUDY    55  52  89 NW14      29.73R
MCCOOK NEB     CLOUDY    55  51  86 SE7       29.68F
AKRON CO       CLOUDY    47  45  93 NW13      29.83F
BURLINGTON CO  CLEAR     49  43  80 NW12      29.76R
LIMON CO       CLOUDY    43  41  93 NW12      29.87R
$$

...UNOFFICIAL OBSERVATIONS...

CITY           SKY/WX    TMP DP  RH WIND       PRES   REMARKS
GOVE KS          N/A     53  32  45 MISG        N/A
SHARON SPRINGS   N/A     49  45  87 NW10        N/A
KIT CARSON CO    N/A     46  40  79 MISG        N/A
YUMA CO          N/A     51  48  89 NW20G26     N/A
$$




USA.gov is the U.S. government's official web portal to all federal, state and local government web resources and services.